| time (UTC) | temp F | wind direction | speed MPH | gust MPH | rain 1hr in | rain 24hr in | rain mn in | humidity % | barometer mb |
| 20260904195503 | 79 | 40 | 1.0 | 2.0 | 0.00 | 0.00 | 0.00 | 68 | 1020.1 |
| 20260904195003 | 79 | 40 | 0.0 | 1.0 | 0.00 | 0.00 | 0.00 | 67 | 1020.0 |
| 20260904194504 | 79 | 40 | 0.0 | 2.0 | 0.00 | 0.00 | 0.00 | 67 | 1020.1 |
| 20260904194004 | 80 | 40 | 2.0 | 5.0 | 0.00 | 0.00 | 0.00 | 66 | 1020.2 |
| 20260904193503 | 80 | 38 | 5.0 | 8.0 | 0.00 | 0.00 | 0.00 | 65 | 1020.3 |
| 20260904193005 | 81 | 237 | 0.0 | 5.0 | 0.00 | 0.00 | 0.00 | 65 | 1020.1 |
| 20260904192504 | 81 | 237 | 0.0 | 0.0 | 0.00 | 0.00 | 0.00 | 64 | 1020.1 |
| 20260904192003 | 81 | 237 | 0.0 | 0.0 | 0.00 | 0.00 | 0.00 | 64 | 1020.0 |
| 20260904191504 | 82 | 237 | 0.0 | 0.0 | 0.00 | 0.00 | 0.00 | 64 | 1020.0 |
| 20260904191003 | 82 | 237 | 0.0 | 0.0 | 0.00 | 0.00 | 0.00 | 64 | 1020.1 |
| 20260904190504 | 82 | 237 | 0.0 | 2.0 | 0.00 | 0.00 | 0.00 | 63 | 1020.0 |
| 20260904190003 | 83 | 237 | 2.0 | 5.0 | 0.00 | 0.00 | 0.00 | 62 | 1020.1 |
| 20260904185502 | 83 | 237 | 2.0 | 5.0 | 0.00 | 0.00 | 0.00 | 62 | 1020.0 |
| 20260904185004 | 83 | 237 | 2.0 | 6.0 | 0.00 | 0.00 | 0.00 | 62 | 1020.1 |
| 20260904184503 | 83 | 237 | 4.0 | 7.0 | 0.00 | 0.00 | 0.00 | 62 | 1020.2 |
| 20260904184003 | 83 | 234 | 5.0 | 7.0 | 0.00 | 0.00 | 0.00 | 61 | 1020.0 |
| 20260904183503 | 83 | 234 | 6.0 | 9.0 | 0.00 | 0.00 | 0.00 | 61 | 1020.0 |
| 20260904183004 | 84 | 225 | 3.0 | 6.0 | 0.00 | 0.00 | 0.00 | 61 | 1020.1 |
| 20260904182502 | 84 | 225 | 2.0 | 7.0 | 0.00 | 0.00 | 0.00 | 60 | 1020.1 |
| 20260904182003 | 84 | 225 | 3.0 | 7.0 | 0.00 | 0.00 | 0.00 | 60 | 1020.0 |
| 20260904181502 | 84 | 228 | 5.0 | 9.0 | 0.00 | 0.00 | 0.00 | 60 | 1020.1 |
| 20260904181003 | 84 | 223 | 5.0 | 7.0 | 0.00 | 0.00 | 0.00 | 60 | 1020.2 |
| 20260904180503 | 84 | 217 | 5.0 | 8.0 | 0.00 | 0.00 | 0.00 | 61 | 1020.1 |
| 20260904174503 | 84 | 227 | 6.0 | 8.0 | 0.00 | 0.00 | 0.00 | 61 | 1019.9 |
| 20260904174003 | 84 | 240 | 5.0 | 8.0 | 0.00 | 0.00 | 0.00 | 61 | 1019.8 |
| 20260904173503 | 84 | 220 | 6.0 | 10.0 | 0.00 | 0.00 | 0.00 | 59 | 1019.8 |
| 20260904173003 | 84 | 217 | 7.0 | 12.0 | 0.00 | 0.00 | 0.00 | 60 | 1019.7 |
| 20260904172504 | 84 | 207 | 7.0 | 10.0 | 0.00 | 0.00 | 0.00 | 61 | 1019.6 |
| 20260904172003 | 84 | 214 | 4.0 | 9.0 | 0.00 | 0.00 | 0.00 | 60 | 1019.5 |
| 20260904171503 | 85 | 207 | 6.0 | 12.0 | 0.00 | 0.00 | 0.00 | 60 | 1019.5 |
| 20260904171004 | 85 | 215 | 5.0 | 12.0 | 0.00 | 0.00 | 0.00 | 59 | 1019.5 |
| 20260904165503 | 85 | 237 | 5.0 | 9.0 | 0.00 | 0.00 | 0.00 | 61 | 1019.6 |
| 20260904165004 | 85 | 260 | 6.0 | 9.0 | 0.00 | 0.00 | 0.00 | 60 | 1019.6 |
| 20260904164504 | 85 | 252 | 5.0 | 12.0 | 0.00 | 0.00 | 0.00 | 61 | 1019.5 |
| 20260904164004 | 86 | 231 | 6.0 | 12.0 | 0.00 | 0.00 | 0.00 | 60 | 1019.4 |
| 20260904163504 | 86 | 230 | 9.0 | 13.0 | 0.00 | 0.00 | 0.00 | 58 | 1019.2 |
| 20260904163004 | 87 | 249 | 10.0 | 15.0 | 0.00 | 0.00 | 0.00 | 57 | 1019.2 |
| 20260904162501 | 86 | 244 | 10.0 | 13.0 | 0.00 | 0.00 | 0.00 | 58 | 1019.1 |
| 20260904162003 | 86 | 238 | 7.0 | 12.0 | 0.00 | 0.00 | 0.00 | 56 | 1019.0 |
| 20260904161504 | 87 | 217 | 7.0 | 13.0 | 0.00 | 0.00 | 0.00 | 55 | 1019.0 |
| 20260904161003 | 88 | 228 | 7.0 | 13.0 | 0.00 | 0.00 | 0.00 | 53 | 1018.8 |
| 20260904160504 | 90 | 244 | 10.0 | 15.0 | 0.00 | 0.00 | 0.00 | 50 | 1018.8 |
| 20260904160004 | 91 | 240 | 10.0 | 18.0 | 0.00 | 0.00 | 0.00 | 47 | 1018.7 |
| 20260904155503 | 92 | 227 | 6.0 | 10.0 | 0.00 | 0.00 | 0.00 | 44 | 1018.7 |
| 20260904155003 | 91 | 220 | 5.0 | 8.0 | 0.00 | 0.00 | 0.00 | 43 | 1018.6 |
| 20260904154504 | 91 | 227 | 6.0 | 8.0 | 0.00 | 0.00 | 0.00 | 41 | 1018.5 |
| 20260904154003 | 90 | 230 | 6.0 | 8.0 | 0.00 | 0.00 | 0.00 | 41 | 1018.4 |
| 20260904153503 | 90 | 201 | 3.0 | 5.0 | 0.00 | 0.00 | 0.00 | 39 | 1018.3 |
| 20260904153003 | 91 | 201 | 0.0 | 0.0 | 0.00 | 0.00 | 0.00 | 40 | 1018.2 |
| 20260904152503 | 91 | 201 | 0.0 | 2.0 | 0.00 | 0.00 | 0.00 | 35 | 1018.0 |
| 20260904152004 | 91 | 201 | 0.0 | 1.0 | 0.00 | 0.00 | 0.00 | 42 | 1017.9 |
| 20260904151503 | 91 | 201 | 0.0 | 1.0 | 0.00 | 0.00 | 0.00 | 40 | 1017.9 |
| 20260904151003 | 91 | 201 | 0.0 | 2.0 | 0.00 | 0.00 | 0.00 | 40 | 1018.1 |
| 20260904150503 | 91 | 201 | 0.0 | 1.0 | 0.00 | 0.00 | 0.00 | 41 | 1018.2 |
| 20260904150004 | 92 | 201 | 0.0 | 2.0 | 0.00 | 0.00 | 0.00 | 37 | 1018.4 |
| 20260904144004 | 92 | 201 | 1.0 | 5.0 | 0.00 | 0.00 | 0.00 | 41 | 1018.9 |
| 20260904143502 | 91 | 201 | 0.0 | 3.0 | 0.00 | 0.00 | 0.00 | 41 | 1019.0 |
| 20260904142004 | 91 | 208 | 2.0 | 5.0 | 0.00 | 0.00 | 0.00 | 44 | 1019.4 |
| 20260904141504 | 91 | 242 | 1.0 | 3.0 | 0.00 | 0.00 | 0.00 | 43 | 1019.6 |
| 20260904140503 | 91 | 235 | 2.0 | 7.0 | 0.00 | 0.00 | 0.00 | 43 | 1019.7 |
| 20260904140005 | 91 | 248 | 2.0 | 6.0 | 0.00 | 0.00 | 0.00 | 45 | 1019.5 |
| 20260904135504 | 91 | 220 | 1.0 | 6.0 | 0.00 | 0.00 | 0.00 | 45 | 1019.5 |
| 20260904135004 | 89 | 220 | 2.0 | 8.0 | 0.00 | 0.00 | 0.00 | 45 | 1019.6 |
| 20260904134503 | 89 | 238 | 3.0 | 8.0 | 0.00 | 0.00 | 0.00 | 45 | 1019.8 |
| 20260904133502 | 90 | 229 | 6.0 | 9.0 | 0.00 | 0.00 | 0.00 | 46 | 1019.9 |
| 20260904133005 | 90 | 246 | 5.0 | 8.0 | 0.00 | 0.00 | 0.00 | 46 | 1020.1 |
| 20260904132502 | 90 | 288 | 5.0 | 10.0 | 0.00 | 0.00 | 0.00 | 47 | 1020.2 |
| 20260904131504 | 90 | 242 | 5.0 | 10.0 | 0.00 | 0.00 | 0.00 | 44 | 1020.3 |
| 20260904130504 | 90 | 285 | 2.0 | 5.0 | 0.00 | 0.00 | 0.00 | 46 | 1020.3 |
| 20260904130003 | 89 | 285 | 3.0 | 6.0 | 0.00 | 0.00 | 0.00 | 45 | 1020.2 |
| 20260904125503 | 88 | 284 | 2.0 | 5.0 | 0.00 | 0.00 | 0.00 | 46 | 1020.3 |
| 20260904125004 | 88 | 284 | 2.0 | 5.0 | 0.00 | 0.00 | 0.00 | 44 | 1020.4 |
| 20260904123005 | 90 | 272 | 6.0 | 9.0 | 0.00 | 0.00 | 0.00 | 44 | 1020.5 |
| 20260904122003 | 89 | 248 | 6.0 | 12.0 | 0.00 | 0.00 | 0.00 | 45 | 1020.6 |
| 20260904121504 | 89 | 264 | 7.0 | 12.0 | 0.00 | 0.00 | 0.00 | 46 | 1020.7 |
| 20260904121004 | 88 | 258 | 6.0 | 13.0 | 0.00 | 0.00 | 0.00 | 45 | 1020.6 |
| 20260904120504 | 90 | 246 | 5.0 | 12.0 | 0.00 | 0.00 | 0.00 | 44 | 1020.7 |
| 20260904120005 | 89 | 245 | 6.0 | 12.0 | 0.00 | 0.00 | 0.00 | 46 | 1020.7 |
| 20260904115502 | 89 | 243 | 7.0 | 14.0 | 0.00 | 0.00 | 0.00 | 45 | 1020.7 |
| 20260904115004 | 89 | 247 | 9.0 | 16.0 | 0.00 | 0.00 | 0.00 | 44 | 1020.7 |
| 20260904114504 | 89 | 248 | 8.0 | 16.0 | 0.00 | 0.00 | 0.00 | 45 | 1020.8 |
| 20260904114004 | 88 | 237 | 8.0 | 18.0 | 0.00 | 0.00 | 0.00 | 46 | 1020.8 |
| 20260904113504 | 87 | 248 | 7.0 | 14.0 | 0.00 | 0.00 | 0.00 | 46 | 1020.8 |
| 20260904113005 | 86 | 256 | 7.0 | 15.0 | 0.00 | 0.00 | 0.00 | 46 | 1020.8 |
| 20260904112504 | 87 | 266 | 7.0 | 15.0 | 0.00 | 0.00 | 0.00 | 44 | 1020.8 |
| 20260904112004 | 88 | 252 | 6.0 | 13.0 | 0.00 | 0.00 | 0.00 | 46 | 1021.0 |
| 20260904111502 | 87 | 227 | 5.0 | 10.0 | 0.00 | 0.00 | 0.00 | 48 | 1021.0 |
| 20260904111002 | 86 | 217 | 4.0 | 8.0 | 0.00 | 0.00 | 0.00 | 54 | 1020.9 |
| 20260904110504 | 84 | 34 | 0.0 | 2.0 | 0.00 | 0.00 | 0.00 | 52 | 1020.8 |
| 20260904110004 | 85 | 34 | 0.0 | 2.0 | 0.00 | 0.00 | 0.00 | 51 | 1020.7 |
| 20260904105504 | 83 | 34 | 0.0 | 2.0 | 0.00 | 0.00 | 0.00 | 52 | 1020.6 |
| 20260904105002 | 83 | 34 | 0.0 | 2.0 | 0.00 | 0.00 | 0.00 | 53 | 1020.6 |
| 20260904104504 | 83 | 34 | 0.0 | 2.0 | 0.00 | 0.00 | 0.00 | 53 | 1020.5 |
| 20260904104003 | 82 | 34 | 0.0 | 2.0 | 0.00 | 0.00 | 0.00 | 52 | 1020.5 |
| 20260904103504 | 81 | 34 | 0.0 | 2.0 | 0.00 | 0.00 | 0.00 | 54 | 1020.4 |
| 20260904103005 | 81 | 34 | 0.0 | 1.0 | 0.00 | 0.00 | 0.00 | 50 | 1020.4 |
| 20260904102504 | 80 | 34 | 0.0 | 0.0 | 0.00 | 0.00 | 0.00 | 57 | 1020.4 |
| 20260904102003 | 78 | 34 | 2.0 | 6.0 | 0.00 | 0.00 | 0.00 | 62 | 1020.4 |
| 20260904101503 | 77 | 34 | 3.0 | 5.0 | 0.00 | 0.00 | 0.00 | 66 | 1020.3 |
| 20260904101004 | 76 | 37 | 0.0 | 3.0 | 0.00 | 0.00 | 0.00 | 67 | 1020.2 |
| 20260904100504 | 75 | 37 | 0.0 | 1.0 | 0.00 | 0.00 | 0.00 | 67 | 1020.3 |
| 20260904100004 | 74 | 37 | 0.0 | 2.0 | 0.00 | 0.00 | 0.00 | 66 | 1020.2 |
| 20260904095504 | 74 | 37 | 0.0 | 3.0 | 0.00 | 0.00 | 0.00 | 65 | 1020.3 |
| 20260904095004 | 73 | 37 | 3.0 | 6.0 | 0.00 | 0.00 | 0.00 | 65 | 1020.4 |
| 20260904094004 | 72 | 36 | 1.0 | 3.0 | 0.00 | 0.00 | 0.00 | 67 | 1020.6 |
| 20260904093504 | 72 | 36 | 0.0 | 1.0 | 0.00 | 0.00 | 0.00 | 68 | 1020.6 |
| 20260904093006 | 72 | 36 | 0.0 | 2.0 | 0.00 | 0.00 | 0.00 | 66 | 1020.7 |
| 20260904092504 | 72 | 36 | 0.0 | 0.0 | 0.00 | 0.00 | 0.00 | 67 | 1020.6 |
| 20260904092004 | 72 | 36 | 0.0 | 0.0 | 0.00 | 0.00 | 0.00 | 67 | 1020.5 |
| 20260904091504 | 72 | 36 | 0.0 | 0.0 | 0.00 | 0.00 | 0.00 | 66 | 1020.4 |
| 20260904091002 | 71 | 36 | 0.0 | 0.0 | 0.00 | 0.00 | 0.00 | 68 | 1020.4 |
| 20260904090504 | 71 | 36 | 0.0 | 0.0 | 0.00 | 0.00 | 0.00 | 69 | 1020.4 |
| 20260904090003 | 70 | 36 | 0.0 | 0.0 | 0.00 | 0.00 | 0.00 | 68 | 1020.4 |
| 20260904085504 | 69 | 36 | 0.0 | 3.0 | 0.00 | 0.00 | 0.00 | 70 | 1020.4 |
| 20260904085002 | 68 | 36 | 0.0 | 3.0 | 0.00 | 0.00 | 0.00 | 72 | 1020.4 |
| 20260904084003 | 67 | 38 | 1.0 | 3.0 | 0.00 | 0.00 | 0.00 | 72 | 1020.3 |
| 20260904083504 | 67 | 38 | 1.0 | 3.0 | 0.00 | 0.00 | 0.00 | 73 | 1020.3 |
| 20260904082503 | 66 | 38 | 1.0 | 3.0 | 0.00 | 0.00 | 0.00 | 74 | 1020.4 |
| 20260904082003 | 66 | 38 | 0.0 | 0.0 | 0.00 | 0.00 | 0.00 | 75 | 1020.4 |
| 20260904081504 | 66 | 38 | 0.0 | 0.0 | 0.00 | 0.00 | 0.00 | 76 | 1020.3 |
| 20260904081003 | 66 | 38 | 0.0 | 0.0 | 0.00 | 0.00 | 0.00 | 76 | 1020.3 |
| 20260904080005 | 66 | 38 | 0.0 | 0.0 | 0.00 | 0.00 | 0.00 | 77 | 1020.3 |
| 20260904075504 | 65 | 38 | 0.0 | 0.0 | 0.00 | 0.00 | 0.00 | 77 | 1020.3 |
| 20260904075004 | 65 | 38 | 0.0 | 0.0 | 0.00 | 0.00 | 0.00 | 78 | 1020.3 |
| 20260904074504 | 65 | 38 | 0.0 | 0.0 | 0.00 | 0.00 | 0.00 | 78 | 1020.4 |
| 20260904074004 | 64 | 38 | 0.0 | 0.0 | 0.00 | 0.00 | 0.00 | 78 | 1020.4 |
| 20260904073503 | 64 | 38 | 0.0 | 0.0 | 0.00 | 0.00 | 0.00 | 79 | 1020.4 |
| 20260904073005 | 64 | 38 | 0.0 | 0.0 | 0.00 | 0.00 | 0.00 | 79 | 1020.4 |
| 20260904072003 | 63 | 38 | 0.0 | 0.0 | 0.00 | 0.00 | 0.00 | 80 | 1020.4 |
| 20260904071004 | 62 | 38 | 0.0 | 0.0 | 0.00 | 0.00 | 0.00 | 80 | 1020.5 |
| 20260904070503 | 62 | 38 | 0.0 | 0.0 | 0.00 | 0.00 | 0.00 | 80 | 1020.5 |
| 20260904070004 | 62 | 38 | 0.0 | 0.0 | 0.00 | 0.00 | 0.00 | 80 | 1020.5 |
| 20260904065502 | 62 | 38 | 0.0 | 0.0 | 0.00 | 0.00 | 0.00 | 80 | 1020.5 |
| 20260904065003 | 62 | 38 | 0.0 | 5.0 | 0.00 | 0.00 | 0.00 | 80 | 1020.4 |
| 20260904064504 | 61 | 38 | 1.0 | 5.0 | 0.00 | 0.00 | 0.00 | 80 | 1020.3 |
| 20260904064003 | 61 | 37 | 4.0 | 9.0 | 0.00 | 0.00 | 0.00 | 81 | 1020.2 |
| 20260904063503 | 61 | 45 | 2.0 | 8.0 | 0.00 | 0.00 | 0.00 | 82 | 1020.2 |
| 20260904063004 | 61 | 38 | 0.0 | 0.0 | 0.00 | 0.00 | 0.00 | 82 | 1020.2 |
| 20260904062503 | 61 | 38 | 0.0 | 0.0 | 0.00 | 0.00 | 0.00 | 82 | 1020.1 |
| 20260904061503 | 61 | 38 | 2.0 | 3.0 | 0.00 | 0.00 | 0.00 | 82 | 1020.0 |
| 20260904060505 | 61 | 38 | 0.0 | 3.0 | 0.00 | 0.00 | 0.00 | 82 | 1019.9 |
| 20260904060005 | 61 | 38 | 2.0 | 3.0 | 0.00 | 0.00 | 0.00 | 82 | 1019.8 |
| 20260904055503 | 61 | 38 | 1.0 | 3.0 | 0.00 | 0.00 | 0.00 | 82 | 1019.8 |
| 20260904055004 | 61 | 38 | 0.0 | 0.0 | 0.00 | 0.00 | 0.00 | 82 | 1019.7 |
| 20260904054504 | 61 | 38 | 0.0 | 0.0 | 0.00 | 0.00 | 0.00 | 82 | 1019.7 |
| 20260904054002 | 61 | 38 | 0.0 | 0.0 | 0.00 | 0.00 | 0.00 | 82 | 1019.6 |
| 20260904053004 | 61 | 38 | 0.0 | 2.0 | 0.00 | 0.00 | 0.00 | 81 | 1019.5 |
| 20260904052504 | 62 | 38 | 1.0 | 2.0 | 0.00 | 0.00 | 0.00 | 81 | 1019.4 |
| 20260904052004 | 62 | 38 | 1.0 | 3.0 | 0.00 | 0.00 | 0.00 | 81 | 1019.3 |
| 20260904051003 | 62 | 39 | 2.0 | 5.0 | 0.00 | 0.00 | 0.00 | 81 | 1019.4 |
| 20260904050005 | 62 | 38 | 0.0 | 3.0 | 0.00 | 0.00 | 0.00 | 81 | 1019.4 |
| 20260904045502 | 62 | 38 | 1.0 | 3.0 | 0.00 | 0.00 | 0.00 | 81 | 1019.4 |
| 20260904045004 | 62 | 38 | 2.0 | 5.0 | 0.00 | 0.00 | 0.00 | 81 | 1019.4 |
| 20260904044004 | 62 | 38 | 2.0 | 3.0 | 0.00 | 0.00 | 0.00 | 81 | 1019.3 |
| 20260904043503 | 62 | 38 | 0.0 | 5.0 | 0.00 | 0.00 | 0.00 | 81 | 1019.3 |
| 20260904043004 | 62 | 38 | 3.0 | 6.0 | 0.00 | 0.00 | 0.00 | 81 | 1019.4 |
| 20260904042504 | 62 | 38 | 3.0 | 6.0 | 0.00 | 0.00 | 0.00 | 80 | 1019.4 |
| 20260904042004 | 62 | 38 | 0.0 | 2.0 | 0.00 | 0.00 | 0.00 | 80 | 1019.4 |
| 20260904041503 | 62 | 38 | 1.0 | 3.0 | 0.00 | 0.00 | 0.00 | 80 | 1019.4 |
| 20260904040504 | 62 | 38 | 0.0 | 2.0 | 0.00 | 0.00 | 0.00 | 79 | 1019.5 |
| 20260904040005 | 62 | 38 | 0.0 | 0.0 | 0.00 | 0.00 | 0.00 | 78 | 1019.5 |
| 20260904035003 | 62 | 38 | 0.0 | 0.0 | 0.00 | 0.00 | 0.00 | 82 | 1019.5 |
| 20260904034503 | 63 | 38 | 0.0 | 0.0 | 0.00 | 0.00 | 0.00 | 82 | 1019.6 |
| 20260904034003 | 63 | 38 | 0.0 | 0.0 | 0.00 | 0.00 | 0.00 | 82 | 1019.6 |
| 20260904033504 | 63 | 38 | 0.0 | 0.0 | 0.00 | 0.00 | 0.00 | 82 | 1019.6 |
| 20260904032003 | 63 | 38 | 0.0 | 0.0 | 0.00 | 0.00 | 0.00 | 82 | 1019.7 |
| 20260904031503 | 63 | 38 | 0.0 | 0.0 | 0.00 | 0.00 | 0.00 | 82 | 1019.7 |
| 20260904031004 | 63 | 38 | 0.0 | 0.0 | 0.00 | 0.00 | 0.00 | 82 | 1019.8 |
| 20260904030004 | 63 | 38 | 0.0 | 0.0 | 0.00 | 0.00 | 0.00 | 83 | 1019.9 |
| 20260904025504 | 63 | 38 | 0.0 | 2.0 | 0.00 | 0.00 | 0.00 | 83 | 1019.9 |
| 20260904025005 | 64 | 38 | 2.0 | 5.0 | 0.00 | 0.00 | 0.00 | 83 | 1020.0 |
| 20260904024504 | 64 | 38 | 1.0 | 3.0 | 0.00 | 0.00 | 0.00 | 83 | 1019.9 |
| 20260904024003 | 64 | 38 | 2.0 | 5.0 | 0.00 | 0.00 | 0.00 | 82 | 1020.0 |
| 20260904023504 | 64 | 38 | 0.0 | 0.0 | 0.00 | 0.00 | 0.00 | 81 | 1020.1 |
| 20260904022504 | 64 | 38 | 0.0 | 0.0 | 0.00 | 0.00 | 0.00 | 82 | 1020.2 |
| 20260904022004 | 64 | 38 | 0.0 | 0.0 | 0.00 | 0.00 | 0.00 | 82 | 1020.1 |
| 20260904021503 | 64 | 38 | 0.0 | 0.0 | 0.00 | 0.00 | 0.00 | 82 | 1020.2 |
| 20260904021004 | 64 | 38 | 0.0 | 3.0 | 0.00 | 0.00 | 0.00 | 82 | 1020.2 |
| 20260904020004 | 64 | 19 | 0.0 | 0.0 | 0.00 | 0.00 | 0.00 | 82 | 1020.4 |
| 20260904015504 | 64 | 19 | 0.0 | 0.0 | 0.00 | 0.00 | 0.00 | 82 | 1020.5 |
| 20260904015004 | 64 | 19 | 0.0 | 0.0 | 0.00 | 0.00 | 0.00 | 82 | 1020.5 |
| 20260904014503 | 65 | 19 | 0.0 | 0.0 | 0.00 | 0.00 | 0.00 | 82 | 1020.6 |
| 20260904013504 | 65 | 19 | 0.0 | 0.0 | 0.00 | 0.00 | 0.00 | 82 | 1020.6 |
| 20260904012504 | 65 | 19 | 0.0 | 0.0 | 0.00 | 0.00 | 0.00 | 80 | 1020.6 |
| 20260904012004 | 65 | 19 | 0.0 | 0.0 | 0.00 | 0.00 | 0.00 | 80 | 1020.6 |
| 20260904011503 | 65 | 19 | 0.0 | 0.0 | 0.00 | 0.00 | 0.00 | 80 | 1020.7 |
| 20260904011004 | 65 | 18 | 0.0 | 0.0 | 0.00 | 0.00 | 0.00 | 80 | 1020.8 |
| 20260904010503 | 65 | 18 | 2.0 | 5.0 | 0.00 | 0.00 | 0.00 | 80 | 1020.7 |
| 20260904010004 | 66 | 17 | 0.0 | 0.0 | 0.00 | 0.00 | 0.00 | 81 | 1020.8 |
| 20260904005503 | 66 | 17 | 0.0 | 0.0 | 0.00 | 0.00 | 0.00 | 81 | 1020.8 |
| 20260904005004 | 66 | 17 | 0.0 | 0.0 | 0.00 | 0.00 | 0.00 | 81 | 1020.8 |
| 20260904004503 | 66 | 17 | 0.0 | 0.0 | 0.00 | 0.00 | 0.00 | 81 | 1020.8 |
| 20260904003504 | 66 | 17 | 0.0 | 0.0 | 0.00 | 0.00 | 0.00 | 80 | 1020.8 |
| 20260904003004 | 66 | 17 | 0.0 | 0.0 | 0.00 | 0.00 | 0.00 | 80 | 1020.8 |
| 20260904001504 | 67 | 17 | 0.0 | 0.0 | 0.00 | 0.00 | 0.00 | 80 | 1020.8 |
| 20260904001003 | 67 | 17 | 0.0 | 0.0 | 0.00 | 0.00 | 0.00 | 80 | 1020.8 |
| 20260904000504 | 67 | 17 | 0.0 | 0.0 | 0.00 | 0.00 | 0.00 | 80 | 1020.8 |
| 20260904000004 | 67 | 17 | 0.0 | 0.0 | 0.00 | 0.00 | 0.00 | 80 | 1020.8 |
| 20260903235002 | 67 | 17 | 0.0 | 0.0 | 0.00 | 0.00 | 0.00 | 79 | 1020.9 |
| 20260903234503 | 68 | 17 | 0.0 | 0.0 | 0.00 | 0.00 | 0.00 | 79 | 1021.0 |
| 20260903234004 | 68 | 17 | 0.0 | 0.0 | 0.00 | 0.00 | 0.00 | 78 | 1021.0 |
| 20260903233503 | 68 | 17 | 0.0 | 0.0 | 0.00 | 0.00 | 0.00 | 78 | 1021.0 |
| 20260903233005 | 68 | 17 | 0.0 | 0.0 | 0.00 | 0.00 | 0.00 | 78 | 1021.1 |
| 20260903232502 | 68 | 17 | 0.0 | 0.0 | 0.00 | 0.00 | 0.00 | 78 | 1021.2 |
| 20260903232002 | 69 | 17 | 0.0 | 0.0 | 0.00 | 0.00 | 0.00 | 78 | 1021.1 |
| 20260903231004 | 69 | 17 | 0.0 | 0.0 | 0.00 | 0.00 | 0.00 | 77 | 1021.1 |
| 20260903230502 | 69 | 17 | 0.0 | 0.0 | 0.00 | 0.00 | 0.00 | 77 | 1021.0 |
| 20260903230003 | 69 | 17 | 0.0 | 0.0 | 0.00 | 0.00 | 0.00 | 77 | 1020.9 |
| 20260903225504 | 69 | 17 | 0.0 | 0.0 | 0.00 | 0.00 | 0.00 | 77 | 1020.9 |
| 20260903225003 | 69 | 17 | 0.0 | 0.0 | 0.00 | 0.00 | 0.00 | 77 | 1020.9 |
| 20260903224503 | 70 | 17 | 0.0 | 0.0 | 0.00 | 0.00 | 0.00 | 76 | 1020.9 |
| 20260903224004 | 70 | 17 | 0.0 | 0.0 | 0.00 | 0.00 | 0.00 | 75 | 1021.0 |
| 20260903223504 | 70 | 17 | 0.0 | 0.0 | 0.00 | 0.00 | 0.00 | 75 | 1021.0 |
| 20260903223004 | 70 | 17 | 0.0 | 0.0 | 0.00 | 0.00 | 0.00 | 75 | 1021.0 |
| 20260903222504 | 71 | 17 | 0.0 | 0.0 | 0.00 | 0.00 | 0.00 | 74 | 1021.1 |
| 20260903222003 | 71 | 16 | 0.0 | 0.0 | 0.00 | 0.00 | 0.00 | 73 | 1021.0 |
| 20260903221504 | 71 | 15 | 0.0 | 0.0 | 0.00 | 0.00 | 0.00 | 73 | 1021.0 |
| 20260903221004 | 72 | 15 | 0.0 | 0.0 | 0.00 | 0.00 | 0.00 | 72 | 1020.9 |
| 20260903220504 | 72 | 15 | 0.0 | 0.0 | 0.00 | 0.00 | 0.00 | 72 | 1020.9 |
| 20260903220005 | 72 | 15 | 0.0 | 0.0 | 0.00 | 0.00 | 0.00 | 71 | 1021.0 |
| 20260903215503 | 72 | 15 | 0.0 | 0.0 | 0.00 | 0.00 | 0.00 | 70 | 1021.0 |
| 20260903215005 | 73 | 15 | 0.0 | 0.0 | 0.00 | 0.00 | 0.00 | 70 | 1021.0 |
| 20260903214003 | 73 | 15 | 0.0 | 0.0 | 0.00 | 0.00 | 0.00 | 68 | 1021.1 |
| 20260903213503 | 74 | 15 | 0.0 | 0.0 | 0.00 | 0.00 | 0.00 | 68 | 1021.1 |
| 20260903213005 | 74 | 15 | 0.0 | 0.0 | 0.00 | 0.00 | 0.00 | 69 | 1021.1 |
| 20260903212502 | 74 | 15 | 0.0 | 0.0 | 0.00 | 0.00 | 0.00 | 68 | 1021.1 |
| 20260903211503 | 75 | 15 | 0.0 | 0.0 | 0.00 | 0.00 | 0.00 | 67 | 1021.2 |
| 20260903211004 | 75 | 15 | 0.0 | 0.0 | 0.00 | 0.00 | 0.00 | 67 | 1021.2 |
| 20260903210504 | 75 | 15 | 0.0 | 0.0 | 0.00 | 0.00 | 0.00 | 67 | 1021.1 |
| 20260903210004 | 76 | 15 | 0.0 | 0.0 | 0.00 | 0.00 | 0.00 | 66 | 1021.2 |
| 20260903205502 | 76 | 15 | 0.0 | 1.0 | 0.00 | 0.00 | 0.00 | 65 | 1021.1 |
| 20260903205003 | 76 | 15 | 2.0 | 6.0 | 0.00 | 0.00 | 0.00 | 64 | 1021.1 |
| 20260903204504 | 77 | 303 | 1.0 | 5.0 | 0.00 | 0.00 | 0.00 | 61 | 1021.0 |
| 20260903204003 | 77 | 228 | 0.0 | 1.0 | 0.00 | 0.00 | 0.00 | 60 | 1021.0 |
| 20260903203504 | 78 | 228 | 0.0 | 0.0 | 0.00 | 0.00 | 0.00 | 59 | 1021.0 |
| 20260903202504 | 78 | 228 | 0.0 | 0.0 | 0.00 | 0.00 | 0.00 | 59 | 1020.9 |
| 20260903202005 | 79 | 228 | 0.0 | 0.0 | 0.00 | 0.00 | 0.00 | 59 | 1020.8 |
| 20260903201502 | 79 | 228 | 0.0 | 0.0 | 0.00 | 0.00 | 0.00 | 58 | 1020.6 |
| 20260903201004 | 80 | 228 | 0.0 | 0.0 | 0.00 | 0.00 | 0.00 | 58 | 1020.6 |
| 20260903200503 | 80 | 228 | 0.0 | 0.0 | 0.00 | 0.00 | 0.00 | 57 | 1020.4 |
| 20260903200005 | 80 | 228 | 0.0 | 0.0 | 0.00 | 0.00 | 0.00 | 56 | 1020.3 |